| time (UTC) | temp F | wind direction | speed knots | gust knots | rain 1hr in | rain 24hr in | rain mn in | humidity % | barometer mb |
| 20260505065516 | 55 | 209 | 4.3 | 8.7 | 0.00 | 0.00 | 0.00 | 62 | 1009.5 |
| 20260505064516 | 55 | 231 | 2.6 | 7.8 | 0.00 | 0.00 | 0.00 | 62 | 1009.5 |
| 20260505063516 | 55 | 227 | 2.6 | 7.0 | 0.00 | 0.00 | 0.00 | 62 | 1009.6 |
| 20260505062536 | 55 | 202 | 2.6 | 12.2 | 0.00 | 0.00 | 0.00 | 62 | 1009.6 |
| 20260505061516 | 55 | 249 | 3.5 | 8.7 | 0.00 | 0.00 | 0.00 | 61 | 1009.7 |
| 20260505060536 | 55 | 221 | 2.6 | 9.6 | 0.00 | 0.00 | 0.00 | 61 | 1009.7 |
| 20260505055516 | 55 | 225 | 0.9 | 3.5 | 0.00 | 0.00 | 0.00 | 61 | 1009.7 |
| 20260505054516 | 55 | 212 | 1.7 | 7.0 | 0.00 | 0.00 | 0.00 | 61 | 1009.8 |
| 20260505053516 | 55 | 200 | 2.6 | 7.0 | 0.00 | 0.00 | 0.00 | 60 | 1009.8 |
| 20260505052516 | 55 | 234 | 3.5 | 11.3 | 0.00 | 0.00 | 0.00 | 61 | 1009.7 |
| 20260505051536 | 55 | 158 | 1.7 | 10.4 | 0.00 | 0.00 | 0.00 | 60 | 1009.7 |
| 20260505050516 | 55 | 216 | 2.6 | 6.1 | 0.00 | 0.00 | 0.00 | 61 | 1009.8 |
| 20260505041516 | 56 | 192 | 2.6 | 7.0 | 0.00 | 0.00 | 0.00 | 59 | 1009.9 |
| 20260505040516 | 56 | 182 | 2.6 | 9.6 | 0.00 | 0.00 | 0.00 | 60 | 1009.9 |
| 20260505035516 | 56 | 200 | 2.6 | 8.7 | 0.00 | 0.00 | 0.00 | 60 | 1009.8 |
| 20260505034516 | 55 | 217 | 2.6 | 9.6 | 0.00 | 0.00 | 0.00 | 60 | 1009.7 |
| 20260505033516 | 56 | 202 | 2.6 | 6.1 | 0.00 | 0.00 | 0.00 | 60 | 1009.7 |
| 20260505032536 | 56 | 199 | 3.5 | 10.4 | 0.00 | 0.00 | 0.00 | 60 | 1009.9 |
| 20260505031516 | 56 | 202 | 3.5 | 9.6 | 0.00 | 0.00 | 0.00 | 59 | 1010.0 |
| 20260505030536 | 56 | 206 | 2.6 | 7.0 | 0.00 | 0.00 | 0.00 | 59 | 1010.0 |
| 20260505025516 | 56 | 195 | 2.6 | 12.2 | 0.00 | 0.00 | 0.00 | 59 | 1010.0 |
| 20260505024516 | 55 | 205 | 2.6 | 9.6 | 0.00 | 0.00 | 0.00 | 60 | 1010.0 |
| 20260505023516 | 56 | 203 | 1.7 | 4.3 | 0.00 | 0.00 | 0.00 | 59 | 1010.0 |
| 20260505022516 | 56 | 215 | 2.6 | 7.0 | 0.00 | 0.00 | 0.00 | 58 | 1010.0 |
| 20260505021516 | 56 | 196 | 4.3 | 9.6 | 0.00 | 0.00 | 0.00 | 57 | 1010.0 |
| 20260505020516 | 56 | 206 | 2.6 | 7.8 | 0.00 | 0.00 | 0.00 | 58 | 1010.0 |
| 20260505015516 | 56 | 214 | 1.7 | 6.1 | 0.00 | 0.00 | 0.00 | 58 | 1010.0 |
| 20260505014516 | 57 | 211 | 2.6 | 9.6 | 0.00 | 0.00 | 0.00 | 57 | 1010.0 |
| 20260505013516 | 57 | 202 | 2.6 | 9.6 | 0.00 | 0.00 | 0.00 | 56 | 1010.0 |
| 20260505012516 | 56 | 203 | 3.5 | 8.7 | 0.00 | 0.00 | 0.00 | 56 | 1009.9 |
| 20260505011556 | 57 | 192 | 2.6 | 9.6 | 0.00 | 0.00 | 0.00 | 55 | 1009.7 |
| 20260505010536 | 56 | 191 | 1.7 | 7.0 | 0.00 | 0.00 | 0.00 | 56 | 1009.6 |
| 20260505005516 | 57 | 229 | 0.9 | 2.6 | 0.00 | 0.00 | 0.00 | 55 | 1009.4 |
| 20260505004516 | 57 | 239 | 0.9 | 2.6 | 0.00 | 0.00 | 0.00 | 53 | 1009.3 |
| 20260505003516 | 58 | 234 | 0.9 | 3.5 | 0.00 | 0.00 | 0.00 | 52 | 1009.2 |
| 20260505002516 | 59 | 223 | 0.0 | 1.7 | 0.00 | 0.00 | 0.00 | 51 | 1009.0 |
| 20260505001516 | 59 | 223 | 0.9 | 2.6 | 0.00 | 0.00 | 0.00 | 50 | 1008.9 |
| 20260505000516 | 60 | 6 | 0.9 | 2.6 | 0.00 | 0.00 | 0.00 | 50 | 1008.7 |
| 20260504235516 | 61 | 191 | 0.0 | 3.5 | 0.00 | 0.00 | 0.00 | 48 | 1008.8 |
| 20260504234516 | 61 | 191 | 0.9 | 4.3 | 0.00 | 0.00 | 0.00 | 47 | 1008.8 |
| 20260504233536 | 61 | 231 | 2.6 | 9.6 | 0.00 | 0.00 | 0.00 | 47 | 1008.7 |
| 20260504232516 | 62 | 206 | 2.6 | 7.0 | 0.00 | 0.00 | 0.00 | 46 | 1008.6 |
| 20260504231536 | 62 | 212 | 1.7 | 6.1 | 0.00 | 0.00 | 0.00 | 46 | 1008.4 |
| 20260504230517 | 62 | 192 | 2.6 | 7.8 | 0.00 | 0.00 | 0.00 | 45 | 1008.3 |
| 20260504225516 | 63 | 196 | 3.5 | 8.7 | 0.00 | 0.00 | 0.00 | 44 | 1008.2 |
| 20260504224516 | 64 | 201 | 3.5 | 8.7 | 0.00 | 0.00 | 0.00 | 42 | 1008.2 |
| 20260504223516 | 65 | 226 | 3.5 | 9.6 | 0.00 | 0.00 | 0.00 | 41 | 1008.1 |
| 20260504222516 | 65 | 236 | 3.5 | 11.3 | 0.00 | 0.00 | 0.00 | 40 | 1008.0 |
| 20260504221516 | 65 | 194 | 4.3 | 14.8 | 0.00 | 0.00 | 0.00 | 40 | 1008.0 |
| 20260504220516 | 65 | 228 | 3.5 | 7.0 | 0.00 | 0.00 | 0.00 | 40 | 1008.0 |
| 20260504215516 | 65 | 224 | 4.3 | 12.2 | 0.00 | 0.00 | 0.00 | 39 | 1008.1 |
| 20260504214516 | 65 | 225 | 3.5 | 6.1 | 0.00 | 0.00 | 0.00 | 40 | 1008.1 |
| 20260504213516 | 65 | 220 | 3.5 | 9.6 | 0.00 | 0.00 | 0.00 | 41 | 1008.2 |
| 20260504212536 | 65 | 218 | 3.5 | 10.4 | 0.00 | 0.00 | 0.00 | 41 | 1008.1 |
| 20260504211516 | 65 | 221 | 3.5 | 14.8 | 0.00 | 0.00 | 0.00 | 42 | 1008.3 |
| 20260504210516 | 65 | 229 | 4.3 | 10.4 | 0.00 | 0.00 | 0.00 | 41 | 1008.5 |
| 20260504205516 | 65 | 237 | 5.2 | 10.4 | 0.00 | 0.00 | 0.00 | 42 | 1008.5 |
| 20260504204516 | 64 | 240 | 5.2 | 13.9 | 0.00 | 0.00 | 0.00 | 41 | 1008.6 |
| 20260504203516 | 65 | 205 | 4.3 | 8.7 | 0.00 | 0.00 | 0.00 | 40 | 1008.7 |
| 20260504202516 | 65 | 227 | 4.3 | 13.0 | 0.00 | 0.00 | 0.00 | 42 | 1008.7 |
| 20260504201516 | 64 | 206 | 5.2 | 13.0 | 0.00 | 0.00 | 0.00 | 41 | 1008.8 |
| 20260504200516 | 65 | 204 | 3.5 | 9.6 | 0.00 | 0.00 | 0.00 | 41 | 1008.8 |
| 20260504195536 | 65 | 252 | 5.2 | 13.0 | 0.00 | 0.00 | 0.00 | 41 | 1008.8 |
| 20260504194516 | 65 | 238 | 3.5 | 11.3 | 0.00 | 0.00 | 0.00 | 42 | 1008.9 |
| 20260504193536 | 63 | 227 | 4.3 | 13.9 | 0.00 | 0.00 | 0.00 | 44 | 1009.0 |
| 20260504192516 | 63 | 234 | 3.5 | 11.3 | 0.00 | 0.00 | 0.00 | 44 | 1009.0 |
| 20260504191516 | 63 | 211 | 3.5 | 9.6 | 0.00 | 0.00 | 0.00 | 44 | 1009.1 |
| 20260504190516 | 63 | 209 | 4.3 | 11.3 | 0.00 | 0.00 | 0.00 | 46 | 1009.1 |
| 20260504185516 | 63 | 200 | 6.1 | 12.2 | 0.00 | 0.00 | 0.00 | 44 | 1009.2 |
| 20260504184516 | 61 | 220 | 3.5 | 12.2 | 0.00 | 0.00 | 0.00 | 46 | 1009.4 |
| 20260504183516 | 0 | 237 | 4.3 | 4.3 | 0.00 | 0.00 | 0.00 | ||
| 20260504182516 | 61 | 204 | 3.5 | 9.6 | 0.00 | 0.00 | 0.00 | 46 | 1009.5 |
| 20260504181516 | 61 | 201 | 5.2 | 12.2 | 0.00 | 0.00 | 0.00 | 46 | 1009.4 |
| 20260504180516 | 61 | 232 | 5.2 | 16.5 | 0.00 | 0.00 | 0.00 | 45 | 1009.4 |
| 20260504175516 | 62 | 235 | 3.5 | 12.2 | 0.00 | 0.00 | 0.00 | 44 | 1009.4 |
| 20260504174516 | 63 | 174 | 3.5 | 8.7 | 0.00 | 0.00 | 0.00 | 44 | 1009.4 |
| 20260504173516 | 62 | 198 | 6.1 | 14.8 | 0.00 | 0.00 | 0.00 | 45 | 1009.4 |
| 20260504172516 | 60 | 226 | 5.2 | 12.2 | 0.00 | 0.00 | 0.00 | 47 | 1009.5 |
| 20260504171516 | 60 | 203 | 6.1 | 13.9 | 0.00 | 0.00 | 0.00 | 47 | 1009.6 |
| 20260504170516 | 60 | 219 | 4.3 | 10.4 | 0.00 | 0.00 | 0.00 | 48 | 1009.7 |
| 20260504150516 | 55 | 253 | 5.2 | 10.4 | 0.00 | 0.00 | 0.00 | 51 | 1010.7 |
| 20260504140516 | 52 | 215 | 4.3 | 10.4 | 0.00 | 0.00 | 0.00 | 54 | 1011.0 |
| 20260504130556 | 49 | 212 | 4.3 | 11.3 | 0.00 | 0.00 | 0.00 | 56 | 1011.5 |
| 20260504110517 | 41 | 323 | 0.9 | 2.6 | 0.00 | 0.00 | 0.00 | 71 | 1011.4 |
| 20260504100517 | 38 | 18 | 1.7 | 2.6 | 0.00 | 0.00 | 0.00 | 73 | 1011.5 |
| 20260504081517 | 39 | 9 | 0.9 | 1.7 | 0.00 | 0.00 | 0.00 | 70 | 1011.4 |
| 20260504080517 | 39 | 9 | 0.9 | 1.7 | 0.00 | 0.00 | 0.00 | 69 | 1011.5 |